This demonstration page uses our WeatherBlox Daily Observations layout. Learn more.

Left ArrowRight Arrow

44.8408, -93.29828

Hourly Observations for February 27, 2022

Temp ( °F °C ) Dew Point ( °F °C ) Humidity (%) Winds ( mph kmh ) Pressure ( in mb ) Visibility ( mi km ) Precip ( " mm )
12:53 am 00:53 Clear 21 -6.1 14 -10 74 74 WSW 6 9 30.22 1024 10 16 0.00 0.00
1:53 am 01:53 Clear 21 -6.1 13 -10.6 71 71 W 7 11 30.24 1024 10 16 0.00 0.00
2:53 am 02:53 Clear 20 -6.7 13 -10.6 74 74 W 3 6 30.24 1024 10 16 0.00 0.00
3:53 am 03:53 Clear 17 -8.3 12 -11.1 80 80 Calm 30.24 1024 10 16 0.00 0.00
4:53 am 04:53 Clear 17 -8.3 12 -11.1 80 80 WSW 3 6 30.25 1025 10 16 0.00 0.00
5:53 am 05:53 Clear 16 -8.9 11 -11.7 80 80 Calm 30.27 1025 9 14 0.00 0.00
6:53 am 06:53 Clear 14 -10 10 -12.2 84 84 W 3 6 30.28 1025 10 16 0.00 0.00
7:53 am 07:53 Mostly Sunny 15 -9.4 13 -10.6 91 91 SSW 5 7 30.29 1026 10 16 0.00 0.00
8:53 am 08:53 Mostly Sunny 17 -8.3 13 -10.6 84 84 SSW 5 7 30.29 1026 10 16 0.00 0.00
9:53 am 09:53 Partly Cloudy 21 -6.1 14 -10 74 74 S 3 6 30.28 1026 10 16 0.00 0.00
10:53 am 10:53 Partly Cloudy 26 -3.3 15 -9.4 63 63 Calm 30.27 1025 10 16 0.00 0.00
11:53 am 11:53 Partly Cloudy 28 -2.2 15 -9.4 58 58 SSW 3 6 30.26 1025 10 16 0.00 0.00
12:53 pm 12:53 Partly Cloudy 31 -0.6 15 -9.4 52 52 SSW 6 9 30.23 1024 10 16 0.00 0.00
1:53 pm 13:53 Mostly Cloudy 33 0.6 16 -8.9 49 49 W 5 7 30.22 1024 10 16 0.00 0.00
2:53 pm 14:53 Mostly Cloudy 33 0.6 16 -8.9 49 49 SSW 6 9 30.21 1023 10 16 0.00 0.00
3:53 pm 15:53 Mostly Cloudy 34 1.1 16 -8.9 48 48 VRB 3 6 30.20 1023 10 16 0.00 0.00
4:53 pm 16:53 Mostly Cloudy 34 1.1 16 -8.9 48 48 SSW 5 7 30.18 1022 10 16 0.00 0.00
5:53 pm 17:53 Mostly Cloudy 32 0 18 -7.8 56 56 SSE 9 15 30.17 1022 10 16 0.00 0.00
6:53 pm 18:53 Mostly Cloudy 30 -1.1 19 -7.2 64 64 SSE 6 9 30.18 1022 10 16 0.00 0.00
7:53 pm 19:53 Mostly Cloudy 29 -1.7 19 -7.2 66 66 ESE 8 13 30.18 1022 10 16 0.00 0.00
8:53 pm 20:53 Mostly Cloudy 29 -1.7 20 -6.7 69 69 ESE 9 15 30.16 1021 10 16 0.00 0.00
9:53 pm 21:53 Mostly Cloudy 28 -2.2 19 -7.2 69 69 E 8 13 30.15 1021 10 16 0.00 0.00
10:53 pm 22:53 Mostly Cloudy 27 -2.8 19 -7.2 72 72 ESE 12 19 30.13 1020 10 16 0.00 0.00
11:53 pm 23:53 Partly Cloudy 27 -2.8 19 -7.2 72 72 ESE 10 17 30.10 1019 10 16 0.00 0.00

Powered by AerisWeather